AOJ74J LOWK-LOWW

Flight info

Callsign AOJ74J
Flight time 0h 27m
Altitude 15000
Route ABIRI DCT NIGSI NIGSI2W
Aircraft C750/M-SBDE3FGHRWXY/S

Departure

Time 2026-04-23 18:21
Airport Klagenfurt Airport (LOWK)

Arrival

Time 2026-04-23 18:48
Airport Vienna International Airport (LOWW)
Time Latitude Longitude Altitude Speed Heading
2026-04-23 18:17 46.64839 14.32522 1468 ft 0 kts 255°
2026-04-23 18:19 46.64828 14.32487 1471 ft 9 kts 233°
2026-04-23 18:19 46.64766 14.32471 1475 ft 13 kts 178°
2026-04-23 18:19 46.64668 14.32466 1475 ft 14 kts 194°
2026-04-23 18:20 46.64572 14.32427 1473 ft 16 kts 196°
2026-04-23 18:20 46.64498 14.32546 1471 ft 44 kts 107°
2026-04-23 18:20 46.64299 14.33533 1473 ft 147 kts 106°
2026-04-23 18:20 46.63983 14.35067 1854 ft 166 kts 106°
2026-04-23 18:21 46.63630 14.36798 2341 ft 192 kts 103°
2026-04-23 18:21 46.63254 14.38802 2769 ft 219 kts 104°
2026-04-23 18:21 46.62809 14.41058 3146 ft 245 kts 105°
2026-04-23 18:21 46.62302 14.43560 3634 ft 267 kts 106°
2026-04-23 18:22 46.61785 14.46132 4866 ft 265 kts 103°
2026-04-23 18:22 46.61263 14.48755 5750 ft 276 kts 102°
2026-04-23 18:22 46.60722 14.51456 6739 ft 280 kts 102°
2026-04-23 18:22 46.60173 14.54176 7813 ft 282 kts 101°
2026-04-23 18:23 46.59808 14.55994 8564 ft 283 kts 101°
2026-04-23 18:23 46.60325 14.62228 10559 ft 276 kts 55°
2026-04-23 18:24 46.62703 14.67277 10966 ft 326 kts 52°
2026-04-23 18:24 46.63971 14.70043 11722 ft 329 kts 53°
2026-04-23 18:24 46.65244 14.72840 12370 ft 336 kts 54°
2026-04-23 18:25 46.67908 14.78581 13790 ft 346 kts 53°
2026-04-23 18:25 46.69259 14.81519 14423 ft 351 kts 54°
2026-04-23 18:25 46.70599 14.84443 15126 ft 352 kts 54°
2026-04-23 18:25 46.71968 14.87418 15794 ft 355 kts 54°
2026-04-23 18:26 46.73348 14.90419 16488 ft 358 kts 54°
2026-04-23 18:26 46.74734 14.93441 17202 ft 360 kts 54°
2026-04-23 18:26 46.76140 14.96492 17836 ft 364 kts 53°
2026-04-23 18:26 46.77743 14.99365 18484 ft 366 kts 47°
2026-04-23 18:27 46.79396 15.02177 19072 ft 369 kts 47°
2026-04-23 18:27 46.81098 15.05111 19120 ft 390 kts 48°
2026-04-23 18:27 46.82882 15.08229 19122 ft 409 kts 48°
2026-04-23 18:27 46.84742 15.11471 19123 ft 423 kts 48°
2026-04-23 18:28 46.86653 15.14776 19116 ft 427 kts 48°
2026-04-23 18:28 46.88578 15.18115 19116 ft 430 kts 48°
2026-04-23 18:28 46.90503 15.21474 19114 ft 432 kts 48°
2026-04-23 18:28 46.92433 15.24847 19112 ft 433 kts 48°
2026-04-23 18:29 46.94368 15.28221 19111 ft 433 kts 48°
2026-04-23 18:29 46.96305 15.31603 19111 ft 433 kts 48°
2026-04-23 18:29 46.98239 15.34991 19104 ft 435 kts 48°
2026-04-23 18:29 47.00184 15.38403 19105 ft 436 kts 48°
2026-04-23 18:30 47.02127 15.41811 19102 ft 436 kts 48°
2026-04-23 18:30 47.04068 15.45222 19102 ft 436 kts 48°
2026-04-23 18:30 47.06010 15.48639 19104 ft 436 kts 48°
2026-04-23 18:30 47.07948 15.52055 19104 ft 436 kts 49°
2026-04-23 18:31 47.09888 15.55476 19109 ft 436 kts 49°
2026-04-23 18:31 47.11824 15.58894 19115 ft 436 kts 49°
2026-04-23 18:31 47.13763 15.62323 19114 ft 436 kts 49°
2026-04-23 18:31 47.15677 15.65714 19113 ft 437 kts 49°
2026-04-23 18:32 47.17648 15.69209 19112 ft 438 kts 49°
2026-04-23 18:32 47.19565 15.72611 19110 ft 438 kts 49°
2026-04-23 18:32 47.21510 15.76066 19109 ft 438 kts 49°
2026-04-23 18:32 47.23476 15.79566 19111 ft 439 kts 49°
2026-04-23 18:33 47.25418 15.83026 19105 ft 438 kts 49°
2026-04-23 18:33 47.27361 15.86490 19108 ft 439 kts 49°
2026-04-23 18:33 47.29301 15.89957 19100 ft 439 kts 49°
2026-04-23 18:33 47.31210 15.93375 19040 ft 422 kts 49°
2026-04-23 18:34 47.32997 15.96587 18519 ft 391 kts 49°
2026-04-23 18:34 47.34655 15.99560 17929 ft 373 kts 49°
2026-04-23 18:34 47.36434 16.02269 17292 ft 365 kts 38°
2026-04-23 18:34 47.38569 16.04314 16682 ft 359 kts 28°
2026-04-23 18:35 47.40608 16.06345 16110 ft 357 kts 36°
2026-04-23 18:35 47.42526 16.08683 15257 ft 357 kts 39°
2026-04-23 18:35 47.44387 16.11041 14608 ft 346 kts 38°
2026-04-23 18:35 47.46291 16.13190 14199 ft 344 kts 34°
2026-04-23 18:36 47.48230 16.15244 13730 ft 343 kts 35°
2026-04-23 18:36 47.50128 16.17355 13269 ft 340 kts 36°
2026-04-23 18:36 47.51982 16.19494 12822 ft 337 kts 36°
2026-04-23 18:36 47.53832 16.21593 12374 ft 334 kts 35°
2026-04-23 18:37 47.55682 16.23657 11943 ft 333 kts 34°
2026-04-23 18:37 47.57521 16.25722 11504 ft 330 kts 34°
2026-04-23 18:37 47.59299 16.27744 11082 ft 310 kts 34°
2026-04-23 18:37 47.60956 16.29634 10669 ft 291 kts 34°
2026-04-23 18:38 47.62005 16.30815 10422 ft 280 kts 33°
2026-04-23 18:38 47.63514 16.32512 10060 ft 267 kts 33°
2026-04-23 18:38 47.64974 16.34163 9697 ft 262 kts 33°
2026-04-23 18:38 47.66418 16.35800 9348 ft 260 kts 33°
2026-04-23 18:39 47.67849 16.37424 9013 ft 259 kts 32°
2026-04-23 18:39 47.69278 16.39045 8658 ft 258 kts 32°
2026-04-23 18:39 47.70703 16.40664 8332 ft 257 kts 32°
2026-04-23 18:39 47.72117 16.42271 7994 ft 255 kts 31°
2026-04-23 18:40 47.73523 16.43872 7661 ft 254 kts 31°
2026-04-23 18:40 47.74931 16.45472 7321 ft 254 kts 31°
2026-04-23 18:40 47.76329 16.47066 6951 ft 253 kts 30°
2026-04-23 18:40 47.77721 16.48653 6576 ft 251 kts 30°
2026-04-23 18:41 47.79107 16.50233 6231 ft 251 kts 30°
2026-04-23 18:41 47.80483 16.51805 5895 ft 248 kts 30°
2026-04-23 18:41 47.81850 16.53364 5570 ft 248 kts 30°
2026-04-23 18:41 47.83217 16.54926 5242 ft 247 kts 30°
2026-04-23 18:42 47.84577 16.56481 4918 ft 247 kts 30°
2026-04-23 18:42 47.85941 16.58040 4584 ft 247 kts 30°
2026-04-23 18:42 47.87303 16.59601 4257 ft 247 kts 31°
2026-04-23 18:42 47.88658 16.61155 3932 ft 245 kts 31°
2026-04-23 18:43 47.89977 16.62674 3601 ft 234 kts 31°
2026-04-23 18:43 47.91263 16.64138 3291 ft 231 kts 28°
2026-04-23 18:43 47.92672 16.65084 2949 ft 215 kts
2026-04-23 18:43 47.94125 16.65228 2981 ft 211 kts 352°
2026-04-23 18:44 47.95532 16.64748 3027 ft 208 kts 343°
2026-04-23 18:44 47.96937 16.64146 2983 ft 210 kts 343°
2026-04-23 18:44 47.98348 16.63565 2740 ft 202 kts 343°
2026-04-23 18:44 47.99554 16.63063 2465 ft 171 kts 343°
2026-04-23 18:45 48.00620 16.62615 2240 ft 143 kts 343°
2026-04-23 18:45 48.01570 16.62213 2065 ft 142 kts 343°
2026-04-23 18:45 48.02472 16.61832 1887 ft 120 kts 343°
2026-04-23 18:45 48.03197 16.61526 1737 ft 101 kts 344°
2026-04-23 18:46 48.03869 16.61242 1608 ft 101 kts 343°
2026-04-23 18:46 48.04546 16.60956 1477 ft 105 kts 343°
2026-04-23 18:46 48.05284 16.60643 1336 ft 111 kts 343°
2026-04-23 18:46 48.06041 16.60323 1178 ft 118 kts 342°
2026-04-23 18:47 48.06854 16.59977 1036 ft 117 kts 345°
2026-04-23 18:47 48.07626 16.59651 857 ft 117 kts 345°
2026-04-23 18:47 48.08462 16.59298 741 ft 124 kts 343°
2026-04-23 18:47 48.09258 16.58974 626 ft 108 kts 341°
2026-04-23 18:48 48.09886 16.58703 611 ft 81 kts 344°
2026-04-23 18:48 48.10380 16.58496 611 ft 67 kts 344°
2026-04-23 18:48 48.10782 16.58324 611 ft 53 kts 345°
2026-04-23 18:48 48.11015 16.58136 605 ft 28 kts 305°
2026-04-23 18:49 48.11078 16.57961 607 ft 5 kts 297°
2026-04-23 18:49 48.11080 16.57954 605 ft 2 kts 297°
2026-04-23 18:49 48.11117 16.57840 612 ft 16 kts 296°
2026-04-23 18:49 48.11166 16.57688 607 ft 17 kts 295°
2026-04-23 18:50 48.11203 16.57576 609 ft 17 kts 296°
2026-04-23 18:50 48.11271 16.57368 605 ft 17 kts 296°
2026-04-23 18:50 48.11322 16.57209 609 ft 19 kts 296°
2026-04-23 18:50 48.11382 16.57027 607 ft 20 kts 295°
2026-04-23 18:51 48.11454 16.56805 609 ft 24 kts 295°
2026-04-23 18:51 48.11541 16.56539 610 ft 30 kts 296°
2026-04-23 18:51 48.11607 16.56335 610 ft 17 kts 297°
2026-04-23 18:51 48.11671 16.56141 608 ft 22 kts 296°
2026-04-23 18:52 48.11735 16.55941 610 ft 20 kts 296°
2026-04-23 18:52 48.11796 16.55756 607 ft 19 kts 295°
2026-04-23 18:52 48.11852 16.55582 607 ft 18 kts 296°
2026-04-23 18:52 48.11869 16.55443 608 ft 12 kts 227°
2026-04-23 18:53 48.11834 16.55355 604 ft 10 kts 287°
2026-04-23 18:53 48.11879 16.55220 612 ft 19 kts 295°
2026-04-23 18:53 48.11939 16.55035 608 ft 20 kts 296°
2026-04-23 18:53 48.12014 16.54808 609 ft 27 kts 296°
2026-04-23 18:54 48.12092 16.54568 611 ft 25 kts 298°
2026-04-23 18:54 48.12165 16.54345 613 ft 23 kts 293°
2026-04-23 18:54 48.12231 16.54136 611 ft 22 kts 295°
2026-04-23 18:54 48.12294 16.53942 604 ft 20 kts 297°
2026-04-23 18:55 48.12353 16.53761 604 ft 19 kts 296°
2026-04-23 18:55 48.12401 16.53623 610 ft 2 kts 333°
2026-04-23 18:55 48.12450 16.53638 604 ft 10 kts
2026-04-23 18:55 48.12537 16.53641 604 ft 7 kts 358°
2026-04-23 18:56 48.12553 16.53614 616 ft 7 kts 298°
2026-04-23 18:56 48.12562 16.53580 607 ft 0 kts 295°